Flag for Canada Weather past 2 weeks in Oakville, Ontario, Canada

Now
64 °F

Mild.


Feels Like: 64 °F
Forecast: 64 / 77 °F
Wind: 10 mph from Northeast

Location: Burlington Piers

Current Time: Aug 20, 2014 at 3:40:03 PM

Latest Report: Aug 20, 2014 at 3:00 PM


Visibility: N/A

Pressure: 29.88 "Hg

Humidity: 93%

Dew point: 62 °F

Location of OakvilleLocation

Historic Weather in Oakville — Graph

°F

Oakville temperature yesterday

Maximum temperature yesterday: 64 °F (at 7:00 PM)
Minimum temperature yesterday: 56 °F (at 4:00 AM)
Average temperature yesterday: 60 °F

Past Weeks' High & Low Weather Summary

 TemperatureHumidityPressure
High79 °F (Aug 11, 5:00 PM)93% (Aug 20, 9:00 AM)30.17 "Hg (Aug 20, 9:00 AM)
Low54 °F (Aug 15, 8:00 AM)32% (Aug 7, 8:00 PM)29.65 "Hg (Aug 12, 4:00 PM)
Average66 °F73%29.95 "Hg
* Reported Aug 5 2:00 PM — Aug 20 2:00 PM, Oakville, Weather by CustomWeather, © 2014

Note: Actual official high and low records may vary slightly from our data, if they occured in-between our weather recording intervals... More about our weather records

Advertising

Oakville weather history for previous 24 hours

 ConditionsComfort  
Time TempWeatherWind HumidityBarometerVisibility
2:00 PM
Aug 20
64 °FMild.10 mph93%29.88 "HgN/A
1:00 PM64 °FMild.8 mph92%29.88 "HgN/A
12:00 PM64 °FMild.8 mph93%29.88 "HgN/A
11:00 AM64 °FMild.6 mph86%29.88 "HgN/A
10:00 AM64 °FMild.5 mph91%29.89 "HgN/A
9:00 AM63 °FMild.2 mph93%29.87 "HgN/A
8:00 AM63 °FMild.3 mph91%29.86 "HgN/A
7:00 AM63 °FMild.3 mph89%29.85 "HgN/A
6:00 AM64 °FMild.1 mph89%29.84 "HgN/A
5:00 AM64 °FMild.3 mph89%29.83 "HgN/A
4:00 AM64 °FMild.2 mph89%29.82 "HgN/A
3:00 AM64 °FMild.5 mph91%29.82 "HgN/A
2:00 AM65 °FMild.2 mph92%29.82 "HgN/A
1:00 AM64 °FMild.6 mph89%29.83 "HgN/A
12:00 AM64 °FMild.6 mph91%29.83 "HgN/A
11:00 PM
Aug 19
62 °FMild.10 mph87%29.83 "HgN/A
10:00 PM64 °FMild.10 mph85%29.84 "HgN/A
9:00 PM64 °FMild.9 mph83%29.84 "HgN/A
8:00 PM64 °FMild.10 mph83%29.85 "HgN/A
7:00 PM64 °FMild.10 mph84%29.85 "HgN/A
6:00 PM63 °FMild.8 mph88%29.85 "HgN/A
5:00 PM61 °FCool.8 mph91%29.85 "HgN/A
4:00 PM61 °FCool.9 mph91%29.86 "HgN/A
3:00 PM61 °FCool.9 mph91%29.87 "HgN/A
Weather by CustomWeather, © 2014

See weather overviewHow to use our weather pages